Regional Weather Roundup
Issued by NWS Albany, NY

Home | Current Version | Previous Version | Text Only | Print | Product List | Glossary On
Versions: 1 2 3 4 5 6 7 8 9 10 11 12 13 14 15 16 17 18 19 20 21 22 23 24 25 26 27 28 29 30 31 32 33 34 35 36 37 38 39 40 41 42 43 44 45 46 47 48 49 50
000
ASUS41 KALY 251310
RWRALY

NEW YORK STATE HOURLY WEATHER ROUNDUP
NATIONAL WEATHER SERVICE ALBANY NY
900 AM EDT SUN AUG 25 2019

NOTE: "FAIR" INDICATES FEW OR NO CLOUDS BELOW 12,000 FEET WITH NO
SIGNIFICANT WEATHER AND/OR NO OBSTRUCTIONS TO VISIBILITY.

NYZ032-033-038>043-046>054-057>066-NYZ062>081-082-084-251400-
EAST


CITY           SKY/WX    TMP DP  RH WIND       PRES   REMARKS
ALBANY         FAIR      66  57  72 N5        30.36R
GLENS FALLS    CLOUDY    63  57  81 CALM      30.36S
POUGHKEEPSIE   FAIR      67  56  67 N9        30.31S
NEWBURGH       MOSUNNY   66  57  72 NE9       30.33R
MONTGOMERY     FAIR      65  55  70 NE9G18    30.32R
WHITE PLAINS   FAIR      65  56  72 NE12G20   30.29R
ISLIP          FAIR      67  58  72 NE18      30.26R
NEW YORK CITY  FAIR      68  57  68 NE21G29   30.26R
CENTRAL PARK   FAIR      66  56  70 NE12G20   30.30R
$$

NYZ005>009-017-018-044>046-055-056-251400-
CENTRAL


CITY           SKY/WX    TMP DP  RH WIND       PRES   REMARKS
FULTON         FAIR      63  54  72 VRB6      30.34R
SYRACUSE       FAIR      60  55  83 E5        30.34S
ROME           FAIR      63  56  78 E8        30.36R
ELMIRA         FOG       53  53 100 CALM      30.34R VSB 3/4
BINGHAMTON     CLOUDY    57  53  86 E5        30.34R
MONTICELLO     CLOUDY    61  53  75 E6        30.35R
$$

NYZ026>034-041>043-087-251400-
NORTH


CITY           SKY/WX    TMP DP  RH WIND       PRES   REMARKS
WATERTOWN      FAIR      64  58  80 NE3       30.34S
FORT DRUM      NOT AVBL
OGDENSBURG     FAIR      63  57  82 NE6       30.34S
MASSENA        FAIR      58  55  90 E3        30.38S
SARANAC LAKE   FAIR      56  51  84 CALM      30.37S
PLATTSBURGH    PTSUNNY   61  58  90 CALM      30.37S
$$

NYZ001>004-010>016-019>021-085-251400-
WEST


CITY           SKY/WX    TMP DP  RH WIND       PRES   REMARKS
NIAGARA FALLS  FAIR      61  54  77 E6        30.31S
BUFFALO        FAIR      62  52  69 SE6       30.31S
DUNKIRK        FAIR      65  53  65 CALM      30.29S
JAMESTOWN      FAIR      58  52  80 VRB3      30.32S
WELLSVILLE     FAIR      53  52  96 SE3       30.35S
ROCHESTER      FAIR      61  55  81 CALM      30.33S
PENN YAN       CLOUDY    57  56  96 CALM      30.34S FOG
$$

             KEY
       WCI = WIND CHILL INDEX
       VSB = VISIBILITY
       HX  = HEAT INDEX
$$



USA.gov is the U.S. government's official web portal to all federal, state and local government web resources and services.